Satellite-Ground Cal/Val Region Overpasses Predictions

Prediction of Satellite NPP Overpassing Cal/Val Region: PacNW

Region Location: (Latitude: 10.00, Longitude: 139.50) to (Latitude: 22.70, Longitude: 165.60).

Table of predicted overpasses for the next 14.0 days since TLE Epoch: 6/7/2012
Interval Starting Time Starting Location Ending Time Ending Location
1 06/08/2012 03:34:52 ( 10.05, 145.61) 06/08/2012 03:38:27 ( 22.68, 142.61)
2 06/08/2012 14:28:20 ( 11.71, 165.60) 06/08/2012 14:28:49 ( 10.01, 165.21)
3 06/08/2012 16:06:43 ( 22.68, 142.85) 06/08/2012 16:10:18 ( 10.06, 139.85)
4 06/09/2012 03:15:48 ( 10.03, 150.38) 06/09/2012 03:19:23 ( 22.66, 147.38)
5 06/09/2012 15:47:40 ( 22.70, 147.61) 06/09/2012 15:51:16 ( 10.02, 144.60)
6 06/10/2012 02:56:45 ( 10.01, 155.14) 06/10/2012 03:00:21 ( 22.70, 152.13)
7 06/10/2012 15:28:37 ( 22.66, 152.36) 06/10/2012 15:32:12 ( 10.04, 149.36)
8 06/11/2012 02:37:42 ( 10.06, 159.89) 06/11/2012 02:41:17 ( 22.68, 156.89)
9 06/11/2012 15:09:34 ( 22.67, 157.13) 06/11/2012 15:13:09 ( 10.05, 154.13)
10 06/12/2012 02:18:39 ( 10.04, 164.66) 06/12/2012 02:22:14 ( 22.67, 161.66)
11 06/12/2012 14:50:31 ( 22.68, 161.89) 06/12/2012 14:54:07 ( 10.01, 158.88)
12 06/13/2012 03:41:05 ( 10.04, 144.05) 06/13/2012 03:44:40 ( 22.67, 141.05)
13 06/13/2012 14:32:41 ( 18.36, 165.59) 06/13/2012 14:35:03 ( 10.02, 163.65)
14 06/13/2012 16:12:57 ( 22.68, 141.28) 06/13/2012 16:15:02 ( 15.35, 139.51)
15 06/14/2012 03:22:02 ( 10.03, 148.81) 06/14/2012 03:25:37 ( 22.66, 145.81)
16 06/14/2012 15:53:54 ( 22.69, 146.05) 06/14/2012 15:57:30 ( 10.01, 143.03)
17 06/15/2012 03:02:58 ( 10.03, 153.57) 06/15/2012 03:06:33 ( 22.65, 150.58)
18 06/15/2012 15:34:50 ( 22.70, 150.81) 06/15/2012 15:38:26 ( 10.02, 147.80)
19 06/16/2012 02:43:55 ( 10.02, 158.34) 06/16/2012 02:47:30 ( 22.65, 155.34)
20 06/16/2012 15:15:48 ( 22.64, 155.56) 06/16/2012 15:19:23 ( 10.02, 152.56)
21 06/17/2012 02:24:51 ( 10.02, 163.10) 06/17/2012 02:28:26 ( 22.65, 160.10)
22 06/17/2012 14:56:44 ( 22.64, 160.32) 06/17/2012 15:00:19 ( 10.02, 157.32)
23 06/18/2012 02:08:33 ( 19.72, 165.59) 06/18/2012 02:09:23 ( 22.65, 164.86)
24 06/18/2012 03:47:18 ( 10.04, 142.49) 06/18/2012 03:50:52 ( 22.60, 139.50)
25 06/18/2012 14:37:41 ( 22.64, 165.09) 06/18/2012 14:41:16 ( 10.02, 162.09)
26 06/18/2012 16:19:10 ( 22.69, 139.72) 06/18/2012 16:19:25 ( 21.81, 139.50)
27 06/19/2012 03:28:15 ( 10.04, 147.25) 06/19/2012 03:31:50 ( 22.67, 144.25)
28 06/19/2012 16:00:06 ( 22.68, 144.48) 06/19/2012 16:03:42 ( 10.01, 141.47)
29 06/20/2012 03:09:11 ( 10.05, 152.01) 06/20/2012 03:12:46 ( 22.67, 149.01)
30 06/20/2012 15:41:03 ( 22.68, 149.25) 06/20/2012 15:44:39 ( 10.00, 146.23)
31 06/21/2012 02:50:08 ( 10.05, 156.77) 06/21/2012 02:53:43 ( 22.68, 153.77)


NCC Satellite Cal/Val Overpasses Prediction Service
